GBAJZ EGPK-EGPK

Flight info

Callsign GBAJZ
Flight time 0h 11m
Altitude 1500
Route 5535N00448W 5531N00453W 5520N00422W 5524N00417W
Aircraft C172/L-SFG/C

Departure

Time 2026-05-04 14:27
Airport Glasgow Prestwick Airport (EGPK)

Arrival

Time 2026-05-04 14:38
Airport Glasgow Prestwick Airport (EGPK)
Time Latitude Longitude Altitude Speed Heading
2026-05-04 14:08 55.50477 -4.59083 45 ft 0 kts 332°
2026-05-04 14:14 55.50482 -4.59086 45 ft 7 kts 351°
2026-05-04 14:14 55.50512 -4.59052 45 ft 3 kts 74°
2026-05-04 14:14 55.50512 -4.59035 45 ft 0 kts 90°
2026-05-04 14:17 55.50525 -4.58980 46 ft 10 kts 63°
2026-05-04 14:17 55.50626 -4.59143 50 ft 16 kts 299°
2026-05-04 14:18 55.50692 -4.59329 47 ft 19 kts 301°
2026-05-04 14:18 55.50807 -4.59581 49 ft 3 kts 30°
2026-05-04 14:19 55.50830 -4.59537 51 ft 0 kts 337°
2026-05-04 14:24 55.50832 -4.59537 51 ft 1 kts
2026-05-04 14:25 55.50835 -4.59533 51 ft 0 kts 63°
2026-05-04 14:26 55.50853 -4.59469 53 ft 11 kts 66°
2026-05-04 14:26 55.50869 -4.59421 55 ft 0 kts 48°
2026-05-04 14:26 55.50885 -4.59395 54 ft 12 kts 36°
2026-05-04 14:26 55.50952 -4.59496 54 ft 34 kts 301°
2026-05-04 14:27 55.51178 -4.60081 120 ft 69 kts 300°
2026-05-04 14:27 55.51431 -4.60796 379 ft 67 kts 294°
2026-05-04 14:27 55.51496 -4.61563 641 ft 68 kts 244°
2026-05-04 14:27 55.51080 -4.62043 907 ft 78 kts 210°
2026-05-04 14:28 55.50481 -4.62133 955 ft 99 kts 149°
2026-05-04 14:28 55.50060 -4.61145 971 ft 100 kts 121°
2026-05-04 14:28 55.49711 -4.60090 999 ft 101 kts 121°
2026-05-04 14:28 55.49383 -4.58982 971 ft 103 kts 117°
2026-05-04 14:29 55.48866 -4.56727 1013 ft 88 kts 67°
2026-05-04 14:29 55.49702 -4.55885 511 ft 71 kts 313°
2026-05-04 14:30 55.49950 -4.56546 302 ft 59 kts 289°
2026-05-04 14:30 55.50149 -4.57155 154 ft 57 kts 293°
2026-05-04 14:30 55.50495 -4.58178 83 ft 57 kts 299°
2026-05-04 14:31 55.50741 -4.58837 236 ft 71 kts 296°
2026-05-04 14:31 55.51168 -4.60550 696 ft 77 kts 262°
2026-05-04 14:32 55.50213 -4.61330 1008 ft 109 kts 144°
2026-05-04 14:32 55.49779 -4.60198 991 ft 110 kts 121°
2026-05-04 14:32 55.49436 -4.59045 1045 ft 103 kts 115°
2026-05-04 14:32 55.49120 -4.57899 1061 ft 106 kts 115°
2026-05-04 14:33 55.48885 -4.56720 1022 ft 92 kts 73°
2026-05-04 14:33 55.49265 -4.55988 763 ft 82 kts 21°
2026-05-04 14:33 55.49768 -4.56052 460 ft 75 kts 304°
2026-05-04 14:33 55.50015 -4.56749 253 ft 58 kts 292°
2026-05-04 14:34 55.50216 -4.57348 149 ft 64 kts 294°
2026-05-04 14:34 55.50433 -4.58041 373 ft 66 kts 293°
2026-05-04 14:34 55.50636 -4.58797 591 ft 71 kts 291°
2026-05-04 14:34 55.50640 -4.59664 794 ft 81 kts 240°
2026-05-04 14:35 55.50157 -4.60216 1002 ft 91 kts 213°
2026-05-04 14:35 55.49529 -4.60106 937 ft 105 kts 138°
2026-05-04 14:35 55.49242 -4.58968 986 ft 97 kts 109°
2026-05-04 14:35 55.49022 -4.57835 1112 ft 96 kts 107°
2026-05-04 14:36 55.48682 -4.56900 1240 ft 88 kts 163°
2026-05-04 14:36 55.48210 -4.57191 1261 ft 75 kts 250°
2026-05-04 14:36 55.48356 -4.57955 1222 ft 71 kts 328°
2026-05-04 14:36 55.48867 -4.57738 1121 ft 86 kts 39°
2026-05-04 14:37 55.48992 -4.56726 1100 ft 93 kts 110°
2026-05-04 14:37 55.48531 -4.56124 1100 ft 79 kts 205°
2026-05-04 14:37 55.48401 -4.56767 1124 ft 64 kts 321°
2026-05-04 14:37 55.48891 -4.56584 1020 ft 82 kts 18°
2026-05-04 14:38 55.49389 -4.56126 738 ft 74 kts 12°
2026-05-04 14:38 55.49833 -4.56302 379 ft 66 kts 306°
2026-05-04 14:38 55.50072 -4.56916 200 ft 58 kts 292°
2026-05-04 14:38 55.50260 -4.57484 67 ft 45 kts 293°
2026-05-04 14:39 55.50385 -4.57857 65 ft 46 kts 301°
2026-05-04 14:39 55.50613 -4.58484 174 ft 70 kts 298°
2026-05-04 14:39 55.50873 -4.59224 438 ft 70 kts 297°
2026-05-04 14:40 55.51244 -4.60825 1011 ft 73 kts 251°
2026-05-04 14:40 55.50809 -4.61442 1236 ft 87 kts 218°
2026-05-04 14:40 55.50284 -4.61927 1466 ft 86 kts 213°
2026-05-04 14:40 55.49744 -4.62391 1458 ft 87 kts 214°
2026-05-04 14:41 55.49197 -4.62857 1499 ft 87 kts 215°
2026-05-04 14:41 55.48636 -4.63300 1519 ft 89 kts 210°
2026-05-04 14:41 55.47510 -4.64332 1478 ft 92 kts 218°
2026-05-04 14:42 55.46390 -4.65364 1471 ft 93 kts 206°
2026-05-04 14:42 55.45797 -4.65809 1442 ft 92 kts 213°
2026-05-04 14:42 55.45220 -4.66249 1450 ft 89 kts 208°
2026-05-04 14:43 55.44647 -4.66620 1476 ft 88 kts 205°
2026-05-04 14:43 55.44072 -4.66971 1528 ft 86 kts 207°
2026-05-04 14:43 55.43503 -4.67328 1594 ft 85 kts 205°
2026-05-04 14:43 55.42975 -4.67630 1903 ft 76 kts 204°
2026-05-04 14:44 55.42462 -4.67879 2147 ft 76 kts 204°
2026-05-04 14:44 55.41929 -4.68130 2386 ft 79 kts 204°
2026-05-04 14:44 55.41389 -4.68346 2621 ft 84 kts 199°
2026-05-04 14:44 55.40841 -4.68544 2888 ft 78 kts 200°
2026-05-04 14:45 55.40269 -4.68593 3008 ft 94 kts 156°
2026-05-04 14:45 55.39635 -4.68479 3026 ft 98 kts 193°
2026-05-04 14:45 55.38955 -4.68620 2956 ft 99 kts 194°
2026-05-04 14:45 55.38292 -4.68795 3008 ft 95 kts 197°
2026-05-04 14:46 55.37764 -4.68936 2977 ft 58 kts 195°
2026-05-04 14:46 55.37407 -4.69053 2718 ft 63 kts 202°
2026-05-04 14:46 55.36908 -4.69281 2757 ft 84 kts 212°
2026-05-04 14:46 55.36762 -4.70000 3018 ft 65 kts 311°
2026-05-04 14:47 55.37240 -4.70520 2980 ft 88 kts 322°
2026-05-04 14:47 55.37733 -4.70591 3037 ft 102 kts 71°
2026-05-04 14:47 55.37419 -4.70523 3065 ft 84 kts 313°
2026-05-04 14:47 55.38005 -4.70086 2972 ft 99 kts
2026-05-04 14:48 55.37787 -4.70437 3008 ft 114 kts 164°
2026-05-04 14:48 55.37114 -4.70087 3005 ft 82 kts 171°
2026-05-04 14:48 55.36666 -4.69863 2979 ft 52 kts 173°
2026-05-04 14:48 55.36163 -4.69948 2691 ft 97 kts 174°
2026-05-04 14:49 55.35588 -4.69213 2566 ft 103 kts 101°
2026-05-04 14:49 55.35783 -4.68046 2297 ft 104 kts 52°
2026-05-04 14:49 55.36134 -4.66960 2017 ft 103 kts 55°
2026-05-04 14:49 55.36491 -4.65872 1819 ft 101 kts 55°
2026-05-04 14:50 55.36879 -4.64784 1694 ft 105 kts 54°
2026-05-04 14:50 55.37265 -4.63700 1630 ft 104 kts 51°
2026-05-04 14:50 55.37662 -4.62698 1651 ft 97 kts 51°
2026-05-04 14:50 55.38052 -4.61703 1598 ft 99 kts 49°
2026-05-04 14:51 55.38463 -4.60707 1555 ft 102 kts 49°
2026-05-04 14:51 55.38957 -4.59810 1412 ft 102 kts 28°
2026-05-04 14:51 55.39563 -4.59322 1407 ft 92 kts 10°
2026-05-04 14:51 55.40182 -4.59053 1396 ft 91 kts
2026-05-04 14:52 55.40817 -4.58862 1297 ft 90 kts
2026-05-04 14:52 55.41437 -4.58767 1294 ft 91 kts
2026-05-04 14:52 55.42069 -4.58659 1259 ft 90 kts 359°
2026-05-04 14:52 55.42693 -4.58546 1264 ft 89 kts
2026-05-04 14:53 55.43308 -4.58421 1240 ft 90 kts 358°
2026-05-04 14:53 55.43946 -4.58329 1270 ft 90 kts 359°
2026-05-04 14:53 55.44548 -4.58199 1294 ft 88 kts
2026-05-04 14:53 55.45162 -4.58107 1269 ft 89 kts
2026-05-04 14:54 55.45788 -4.57945 1242 ft 92 kts
2026-05-04 14:54 55.46415 -4.57701 1256 ft 92 kts
2026-05-04 14:54 55.47015 -4.57300 1104 ft 96 kts 27°
2026-05-04 14:54 55.47507 -4.56703 1018 ft 79 kts 25°
2026-05-04 14:55 55.47961 -4.56191 907 ft 76 kts 22°
2026-05-04 14:55 55.48415 -4.55703 726 ft 77 kts 24°
2026-05-04 14:55 55.48899 -4.55368 584 ft 75 kts
2026-05-04 14:55 55.49392 -4.55530 425 ft 65 kts 325°
2026-05-04 14:56 55.49710 -4.55935 310 ft 57 kts 301°
2026-05-04 14:56 55.49935 -4.56519 230 ft 57 kts 293°
2026-05-04 14:56 55.50128 -4.57104 135 ft 53 kts 294°
2026-05-04 14:56 55.50295 -4.57597 59 ft 36 kts 297°
2026-05-04 14:57 55.50374 -4.57852 63 ft 13 kts 273°
2026-05-04 14:57 55.50315 -4.57939 65 ft 13 kts 205°
2026-05-04 14:57 55.50277 -4.58035 63 ft 13 kts 284°
2026-05-04 14:57 55.50340 -4.58242 63 ft 24 kts 301°
2026-05-04 14:58 55.50435 -4.58515 61 ft 28 kts 301°
2026-05-04 14:58 55.50470 -4.58613 60 ft 27 kts 299°
2026-05-04 14:58 55.50533 -4.58864 53 ft 18 kts 277°
2026-05-04 14:58 55.50514 -4.59014 45 ft 20 kts 241°
2026-05-04 14:59 55.50479 -4.59111 45 ft 0 kts 231°